Home   Weather   Mülheim / Ruhr   Past weeks

Flag for Germany Past Weather in Mülheim / Ruhr, North Rhine-Westphalia, Germany — Yesterday and Last 2 Weeks

Now
23 °F

Clear.


Feels Like: 23 °F
Forecast: 22 / 31 °F
Wind: 1 mph from North

Location: Duesseldorf

Current Time: Jan 22, 2017 at 9:36:39 pm

Latest Report: Jan 22, 2017 at 8:50 pm


Visibility: 10 mi

Pressure: 30.30 "Hg

Humidity: 86%

Dew Point: 19 °F

Location of Mülheim / RuhrLocation

Past Weather in Mülheim / Ruhr — Graph

°F

Mülheim / Ruhr Temperature Yesterday

Maximum temperature yesterday: 43 °F (at 12:50 pm)
Minimum temperature yesterday: 21 °F (at 7:50 am)
Average temperature yesterday: 31 °F

High & Low Weather Summary for the Past Weeks

 TemperatureHumidityPressure
High46 °F (Jan 11, 2:20 pm)100% (Jan 7, 8:20 pm)30.72 "Hg (Jan 7, 8:20 pm)
Low18 °F (Jan 19, 6:20 am)39% (Jan 19, 2:50 pm)28.94 "Hg (Jan 13, 1:20 am)
Average33 °F83%30.19 "Hg
* Reported Jan 7 8:20 pm — Jan 22 8:20 pm, Mülheim / Ruhr, Weather by CustomWeather, © 2017

Note: Actual official high and low records may vary slightly from our data, if they occured in-between our weather recording intervals... More about our weather records

Advertising

Mülheim / Ruhr Weather History for the Previous 24 Hours

Scroll right to see more
 ConditionsComfort  
Time TempWeatherWind HumidityBarometerVisibility
8:20 pm
Sun, Jan 22
25 °FClear.1 mph86%30.30 "Hg10 mi
7:50 pm25 °FClear.1 mph86%30.30 "Hg10 mi
7:20 pm25 °FClear.1 mph86%30.30 "Hg10 mi
6:50 pm27 °FClear.1 mph80%30.30 "Hg10 mi
6:20 pm27 °FClear.2 mph80%30.30 "Hg10 mi
5:50 pm28 °FClear.1 mph74%30.30 "Hg10 mi
5:20 pm32 °FClear.3 mph64%30.30 "Hg10 mi
4:50 pm34 °FSunny.5 mph60%30.30 "Hg10 mi
4:20 pm36 °FSunny.3 mph56%30.30 "Hg10 mi
3:50 pm36 °FSunny.6 mph52%30.30 "Hg10 mi
3:20 pm37 °FSunny.6 mph48%30.30 "Hg10 mi
2:50 pm37 °FPassing clouds.3 mph48%30.30 "HgN/A
2:20 pm37 °FPassing clouds.3 mph45%30.30 "HgN/A
1:50 pm37 °FSunny.5 mph45%30.30 "Hg10 mi
1:20 pm37 °FPassing clouds.5 mph45%30.30 "HgN/A
12:50 pm36 °FPassing clouds.6 mph52%30.30 "HgN/A
12:20 pm34 °FSunny.7 mph51%30.33 "Hg10 mi
11:50 am34 °FPassing clouds.6 mph51%30.33 "HgN/A
11:20 am32 °FPassing clouds.6 mph55%30.36 "HgN/A
10:50 am32 °FSunny.5 mph60%30.33 "Hg10 mi
10:20 am30 °FPassing clouds.5 mph64%30.33 "HgN/A
9:50 am30 °FSunny.2 mph69%30.33 "Hg10 mi
9:20 am25 °FSunny.2 mph74%30.33 "Hg10 mi
8:50 am25 °FPassing clouds.3 mph74%30.33 "HgN/A
8:20 am25 °FClear.5 mph74%30.33 "Hg10 mi
7:50 am25 °FPassing clouds.5 mph74%30.33 "HgN/A
7:20 am25 °FClear.6 mph74%30.33 "Hg10 mi
6:50 am23 °FClear.2 mph74%30.33 "Hg10 mi
6:20 am25 °FClear.2 mph74%30.33 "Hg10 mi
5:50 am25 °FClear.6 mph74%30.33 "Hg10 mi
5:20 am27 °FClear.5 mph69%30.33 "Hg10 mi
4:50 am28 °FPassing clouds.6 mph64%30.33 "HgN/A
4:20 am27 °FClear.6 mph69%30.33 "Hg10 mi
3:50 am28 °FClear.8 mph64%30.33 "Hg10 mi
3:20 am27 °FClear.6 mph74%30.36 "Hg10 mi
2:50 am27 °FClear.7 mph74%30.36 "Hg10 mi
2:20 am28 °FClear.8 mph69%30.36 "Hg10 mi
1:50 am28 °FClear.8 mph69%30.36 "Hg10 mi
1:20 am30 °FClear.8 mph64%30.36 "Hg10 mi
12:50 am30 °FClear.7 mph64%30.36 "Hg10 mi
12:20 am30 °FClear.8 mph69%30.36 "Hg10 mi
11:50 pm
Sat, Jan 21
30 °FClear.7 mph69%30.36 "Hg10 mi
11:20 pm32 °FClear.10 mph64%30.36 "Hg10 mi
10:50 pm32 °FClear.10 mph64%30.36 "Hg10 mi
10:20 pm32 °FClear.8 mph64%30.36 "Hg10 mi
9:50 pm28 °FClear.6 mph74%30.36 "Hg10 mi
9:20 pm30 °FPassing clouds.3 mph69%30.36 "HgN/A
Weather by CustomWeather, © 2017

See weather overviewHow to use our weather pages